JCSAT-17

Last updated on Fri Oct 31 2025 00:02:49 GMT+0000 (Coordinated Universal Time)

1 45245U 20013A 25302.62933740 -.00000310 00000+0 00000+0 0 9995 2 45245 5.4114 354.5535 0003181 213.4164 192.8251 1.00273540 20924
UTC large
Height (km)
Speed (km/s)
/
Latitude / Longitude
Inclination (degrees)
Orbital Period (minutes)
Azimuth
Elevation
Range (km)
Doppler Factor

Next 0 passes for location: London (51.5072 / 0.1276)

Sorry there are no passes over London.